Williamtown, Australia

4:23 PM AEDT on March 28, 2017 (GMT +1100)
Williamtown Military

Weather History for YWLM - December, 2012

Change the Weather History Date:

Tuesday, December 18, 2012

  Actual Average Record
Temperature  
Mean Temperature 71 °F -  
Max Temperature 77 °F - - ()
Min Temperature 65 °F - - ()
Cooling Degree Days 6    
Growing Degree Days 21 (Base 50)    
Moisture  
Dew Point 63 °F    
Average Humidity 76    
Maximum Humidity 88    
Minimum Humidity 53    
Precipitation  
Precipitation 0.00 in - - ()
Sea Level Pressure  
Sea Level Pressure 29.84 in    
Wind  
Wind Speed 8 mph ()    
Max Wind Speed 18 mph    
Max Gust Speed -    
Visibility 6.3 miles    
Events      
T = Trace of Precipitation, MM = Missing Value Source: Averaged Metar Reports

Daily Weather History Graph

Daily Weather History Graph

Search for Another Location

Airport or City:

Trip Planner

Search our weather history database for the weather conditions in past years. The results will help you decide how hot, cold, wet, or windy it might be!

Date:

Astronomy

Dec. 18, 2012 Rise Set
Actual Time 5:40 AM AEDT 7:58 PM AEDT
Civil Twilight 5:11 AM AEDT 8:27 PM AEDT
Nautical Twilight 4:36 AM AEDT 9:02 PM AEDT
Astronomical Twilight 3:58 AM AEDT 9:40 PM AEDT
Moon 10:46 AM AEDT (12/18) 11:39 PM AEDT (12/18)
Length of Visible Light 15h 15m
Length of Day
14h 18m
Waxing Crescent, 28% of the Moon is Illuminated
Dec 18
Waxing Crescent
Dec 20
First Quarter
Dec 28
Full
Jan 5
Last Quarter
Jan 12
New

Hourly Weather History & Observations

Time (AEDT) Temp. Dew Point Humidity Pressure Visibility Wind Dir Wind Speed Gust Speed Precip Events Conditions
12:00 AM 67 °F 60 °F 73% 29.88 in - South 8.1 mph - -   Overcast
12:00 AM 66.2 °F 60.8 °F 83% 29.86 in 6.2 mi South 8.1 mph - N/A   Overcast
12:30 AM 66.2 °F 60.8 °F 83% 29.86 in 6.2 mi South 9.2 mph - N/A   Overcast
1:00 AM 66.2 °F 60.8 °F 83% 29.86 in 6.2 mi SSW 4.6 mph - N/A   Overcast
1:30 AM 66.2 °F 60.8 °F 83% 29.86 in 6.2 mi South 5.8 mph - N/A   Scattered Clouds
2:00 AM 66 °F 61 °F 78% 29.85 in - South 6.9 mph - -  
2:00 AM 66.2 °F 60.8 °F 83% 29.83 in 6.2 mi South 6.9 mph - N/A   Mostly Cloudy
2:30 AM 66.2 °F 62.6 °F 88% 29.83 in 6.2 mi South 5.8 mph - N/A   Mostly Cloudy
3:00 AM 66 °F 63 °F 87% 29.84 in - SSE 6.9 mph - -   Overcast
3:00 AM 66.2 °F 62.6 °F 88% 29.83 in 6.2 mi SSE 6.9 mph - N/A   Overcast
3:30 AM 66.2 °F 62.6 °F 88% 29.83 in 6.2 mi South 8.1 mph - N/A   Overcast
4:00 AM 66.2 °F 62.6 °F 88% 29.83 in 6.2 mi South 6.9 mph - N/A   Overcast
4:18 AM 66.2 °F 62.6 °F 88% 29.83 in 6.2 mi South 6.9 mph - N/A   Overcast
4:30 AM 66.2 °F 62.6 °F 88% 29.83 in 6.2 mi South 8.1 mph - N/A   Overcast
5:00 AM 66 °F 63 °F 85% 29.84 in - South 6.9 mph - -  
5:00 AM 66.2 °F 62.6 °F 88% 29.83 in 6.2 mi South 6.9 mph - N/A   Overcast
5:30 AM 66.2 °F 62.6 °F 88% 29.83 in 6.2 mi SSW 4.6 mph - N/A   Overcast
6:00 AM 66 °F 63 °F 87% 29.85 in 6 mi Calm Calm - -   Haze
6:00 AM 66.2 °F 62.6 °F 88% 29.83 in 6.2 mi Calm Calm - N/A   Scattered Clouds
6:30 AM 66.2 °F 62.6 °F 88% 29.83 in 6.2 mi Calm Calm - N/A   Mostly Cloudy
6:57 AM 66.2 °F 62.6 °F 88% 29.86 in 6.2 mi West 3.5 mph - N/A   Mostly Cloudy
7:00 AM 66.2 °F 62.6 °F 88% 29.86 in 6.2 mi West 5.8 mph - N/A   Mostly Cloudy
7:30 AM 68.0 °F 62.6 °F 83% 29.86 in 6.2 mi WSW 6.9 mph - N/A   Overcast
8:00 AM 69 °F 62 °F 72% 29.87 in - WSW 5.8 mph - -  
8:00 AM 69.8 °F 62.6 °F 78% 29.86 in 6.2 mi WSW 5.8 mph - N/A   Mostly Cloudy
8:30 AM 69.8 °F 62.6 °F 78% 29.86 in 6.2 mi WSW 5.8 mph - N/A   Mostly Cloudy
11:30 AM 73.4 °F 62.6 °F 69% 29.83 in 6.2 mi SW 3.5 mph - N/A   Mostly Cloudy
12:00 PM 74 °F 63 °F 59% 29.85 in 9 mi SE 8.1 mph - -   Haze
12:00 PM 73.4 °F 62.6 °F 69% 29.83 in 6.2 mi SE 8.1 mph - N/A   Mostly Cloudy
12:30 PM 75.2 °F 62.6 °F 65% 29.83 in 6.2 mi SE 10.4 mph - N/A   Mostly Cloudy
1:00 PM 77.0 °F 62.6 °F 61% 29.83 in 6.2 mi SE 10.4 mph - N/A   Scattered Clouds
1:30 PM 77.0 °F 62.6 °F 61% 29.80 in 6.2 mi SE 12.7 mph - N/A   Partly Cloudy
2:00 PM 77 °F 63 °F 53% 29.82 in - SE 13.8 mph - -  
2:00 PM 77.0 °F 62.6 °F 61% 29.80 in 6.2 mi SE 13.8 mph - N/A   Partly Cloudy
2:30 PM 77.0 °F 62.6 °F 61% 29.80 in 6.2 mi SE 12.7 mph - N/A   Partly Cloudy
3:00 PM 77 °F 64 °F 54% 29.81 in 9 mi SE 16.1 mph - -   Haze
3:00 PM 77.0 °F 64.4 °F 65% 29.80 in 6.2 mi SE 16.1 mph - N/A   Partly Cloudy
3:30 PM 77.0 °F 62.6 °F 61% 29.80 in 6.2 mi SE 16.1 mph - N/A   Unknown
4:00 PM 77.0 °F 60.8 °F 57% 29.80 in 6.2 mi East 13.8 mph - N/A   Unknown
4:30 PM 77.0 °F 62.6 °F 61% 29.80 in 6.2 mi East 17.3 mph - N/A   Unknown
5:00 PM 77 °F 64 °F 55% 29.81 in - East 18.4 mph - -  
5:00 PM 77.0 °F 64.4 °F 65% 29.80 in 6.2 mi East 18.4 mph - N/A   Unknown
5:30 PM 77.0 °F 64.4 °F 65% 29.80 in 6.2 mi East 18.4 mph - N/A   Unknown
6:00 PM 75 °F 65 °F 64% 29.81 in - East 17.3 mph - -  
6:00 PM 75.2 °F 66.2 °F 73% 29.80 in 6.2 mi East 17.3 mph - N/A   Unknown
6:30 PM 75.2 °F 66.2 °F 73% 29.80 in 6.2 mi East 15.0 mph - N/A   Unknown
7:00 PM 75.2 °F 66.2 °F 73% 29.83 in 6.2 mi East 13.8 mph - N/A   Unknown
7:30 PM 75.2 °F 64.4 °F 69% 29.83 in 6.2 mi ENE 10.4 mph - N/A   Unknown
8:00 PM 73 °F 65 °F 70% 29.85 in - ENE 11.5 mph - -  
8:00 PM 73.4 °F 66.2 °F 78% 29.83 in 6.2 mi ENE 11.5 mph - N/A   Unknown
8:30 PM 71.6 °F 66.2 °F 83% 29.83 in 6.2 mi ENE 9.2 mph - N/A   Unknown
9:00 PM 72 °F 66 °F 76% 29.87 in - ENE 9.2 mph - -  
9:00 PM 71.6 °F 66.2 °F 83% 29.86 in 6.2 mi ENE 9.2 mph - N/A   Unknown
9:30 PM 71.6 °F 66.2 °F 83% 29.86 in 6.2 mi ENE 9.2 mph - N/A   Unknown
10:00 PM 71.6 °F 66.2 °F 83% 29.89 in 6.2 mi ENE 8.1 mph - N/A   Unknown
10:30 PM 69.8 °F 66.2 °F 88% 29.89 in 6.2 mi ENE 5.8 mph - N/A   Unknown
11:00 PM 70 °F 66 °F 83% 29.90 in - ENE 6.9 mph - -  
11:00 PM 69.8 °F 66.2 °F 88% 29.89 in 6.2 mi ENE 6.9 mph - N/A   Unknown
11:30 PM 69.8 °F 66.2 °F 88% 29.89 in 6.2 mi ENE 5.8 mph - N/A   Unknown